Location: Brad
(46.1333°N, 22.7833°E)
Time: 11:09:21
(UTC+00:00)

ATLAS 2AS CENTAUR R/B - Pass Details

Date: 03 February 2023
Orbit: 986 x 1226 km, 63.7° (Epoch: 31 January)

Event Time Altitude Azimuth Distance (km) Brightness Sun altitude
Rises 16:34:22 0° 321° (NW) 3,977 6.1 -10.4°
Reaches altitude 10° 16:37:07 10° 322° (NW) 2,979 5.4 -10.8°
Maximum altitude 16:44:11 86° 52° (NE) 1,067 2.7 -12.0°
Drops below altitude 10° 16:50:49 10° 142° (SE) 2,802 4.6 -13.2°
Sets 16:53:21 0° 143° (SE) 3,727 5.3 -13.6°
